View from above orbital plane
|
View from above satellite
|
Ground track
|
The orbit data is extracted from the following two-line orbital elements,
1 11416U 79057A 21061.26768728 .00000021 00000-0 23733-4 0 9992
2 11416 98.6664 66.3496 0009804 206.1548 153.9142 14.33620234174077
Epoch (UTC): | 02 March 2021 06:25:28 |
Eccentricity: | 0.0009804 |
inclination: | 98.6664° |
perigee height: | 772 km |
apogee height: | 786 km |
right ascension of ascending node: | 66.3496° |
argument of perigee: | 206.1548° |
revolutions per day: | 14.33620234 |
mean anomaly at epoch: | 153.9142° |
orbit number at epoch: | 17407 |
The dashed part of the orbit path shows where the satellite is in the earth's shadow,
|
|